Wind_Speed
43 43 44 45 46 46 47 48 49 48 48 49 51 52 53 54 54 55 56 57 58 59 61 62 63 64 64 65 65 66 66 67 67 67 68 68 68 69
43 43 44 45 46 48 49 50 51 51 51 52 53 55 56 56 57 58 59 60 62 63 64 64 65 65 65 66 66 67 67 68 68 69 70 71 72 72
43 44 45 47 48 49 51 52 53 54 54 55 56 57 58 59 60 61 62 63 64 64 65 65 66 66 67 67 68 68 69 69 70 70 70 71 72 73
44 45 46 48 49 51 52 53 54 56 57 57 57 58 59 60 62 63 64 65 65 66 67 67 67 68 69 69 69 69 69 68 68 68 69 70 70 72
45 46 48 49 51 52 54 55 56 58 58 59 59 60 61 63 64 65 66 67 67 67 67 68 68 68 68 68 67 67 67 67 67 67 67 68 68 69
46 47 49 51 52 54 55 57 58 58 60 61 61 63 64 66 66 67 67 67 68 68 68 68 68 68 67 66 65 65 64 64 64 64 64 64 65 65
47 49 50 52 53 55 57 57 59 60 61 62 64 65 66 67 68 68 68 67 67 67 66 66 66 65 64 63 62 61 61 60 60 60 60 60 60 59
49 50 51 53 55 56 57 59 60 61 63 64 66 67 67 68 68 69 68 67 64 63 63 63 64 62 60 59 58 57 57 57 56 55 55 54 54 53
50 51 53 54 56 56 58 60 61 63 65 66 67 67 68 68 69 68 67 65 63 62 61 60 59 58 57 56 55 55 54 53 51 51 50 49 48 47
50 52 53 55 56 57 59 60 62 64 66 67 67 68 68 68 68 66 64 62 60 59 59 57 55 55 54 54 54 53 51 49 47 46 44 43 42 41
51 53 55 56 57 59 60 62 63 64 66 67 67 67 67 67 66 64 61 60 57 55 55 54 53 51 50 50 49 48 46 44 42 41 39 38 37 35
52 54 55 57 58 60 62 63 63 64 65 65 65 66 66 65 63 61 59 57 55 53 51 51 49 48 46 45 44 43 41 39 37 36 34 33 31 29
53 54 56 58 60 61 62 63 63 64 64 64 64 64 63 61 59 58 56 55 53 51 49 48 46 45 43 41 39 38 36 34 33 31 30 28 27 25
53 55 57 59 60 61 62 62 63 64 64 63 62 61 59 57 56 54 53 52 50 48 46 45 43 42 39 37 34 32 31 30 28 27 26 24 23 21
55 56 58 60 61 61 61 62 63 63 62 61 60 58 56 54 52 51 50 48 46 45 44 42 40 38 35 33 29 28 27 26 25 23 22 20 19 18
56 58 59 60 61 61 62 63 63 62 60 59 57 56 54 52 50 48 47 45 44 43 42 39 37 34 32 29 26 25 24 22 21 20 19 17 16 14
57 59 60 60 61 61 62 62 61 59 58 57 55 53 51 49 47 46 45 43 41 39 38 36 34 31 28 25 24 22 22 20 19 17 16 14 13 11
59 60 60 60 60 60 60 60 59 58 56 55 52 50 47 46 44 43 41 40 38 36 34 32 30 27 25 23 22 21 20 18 16 15 13 12 11 10
60 61 60 61 60 60 59 58 57 55 54 51 49 46 44 42 40 39 38 37 36 34 31 29 26 24 23 22 20 19 17 16 14 13 11 10 9 8
61 61 61 60 59 59 57 56 54 52 49 47 45 43 40 38 37 37 36 34 33 31 28 26 23 22 21 20 18 17 16 14 12 11 10 8 7 5
61 61 60 59 58 56 54 52 50 48 45 44 42 40 37 36 35 34 33 32 30 27 25 23 21 20 19 17 16 15 14 12 10 8 7 6 4 3
60 59 58 57 55 53 51 49 47 45 43 41 39 37 35 34 33 32 31 29 27 24 22 21 19 18 17 15 14 13 12 10 8 7 5 3 2 2
59 58 56 54 52 50 48 46 44 42 40 39 37 35 33 32 31 30 29 27 24 22 20 18 17 16 15 13 12 12 10 8 7 5 3 2 1 0
Wind_Direction
298 299 299 300 300 301 302 303 303 303 303 303 302 302 301 301 300 299 299 298 297 296 295 294 293 292 290 289 288 286 284 283 281 280 279 277 276 274
299 299 299 300 301 302 302 303 304 304 304 304 303 303 302 301 301 300 299 299 298 297 296 295 294 292 291 290 289 287 286 284 283 281 280 278 276 275
299 299 299 300 301 302 303 304 304 304 304 304 304 303 303 302 302 301 301 300 299 299 298 296 295 294 293 291 290 288 286 285 284 283 281 279 278 276
299 299 300 301 302 302 303 303 304 304 305 305 304 304 304 303 303 302 302 301 300 299 298 297 296 295 294 293 291 289 288 287 285 284 282 281 280 278
299 299 300 301 302 302 303 303 304 305 305 305 305 305 305 304 304 303 302 301 300 299 298 298 297 296 295 293 292 290 289 287 286 285 284 283 281 280
299 300 300 301 302 302 303 304 304 305 305 306 306 306 305 305 304 303 302 301 300 299 299 298 298 297 296 294 293 292 290 289 288 287 286 284 283 282
299 300 301 302 302 303 303 304 305 306 306 306 306 306 306 305 305 304 303 302 301 300 300 299 299 299 298 296 295 293 293 292 291 290 288 287 285 283
300 301 302 302 303 303 304 305 306 307 307 307 307 307 306 306 306 305 305 304 303 301 299 300 300 299 298 297 296 295 295 294 292 291 290 289 287 285
302 302 302 303 303 304 305 306 307 307 307 307 308 308 307 307 307 307 307 306 305 303 302 302 301 300 299 298 298 297 296 295 294 294 292 290 288 286
302 303 303 303 304 305 306 306 307 308 307 307 308 308 308 308 308 308 308 307 306 305 304 304 303 302 301 300 299 298 298 297 297 296 294 292 289 287
303 304 304 304 305 306 306 307 308 308 308 308 308 308 309 309 309 308 308 308 308 307 306 306 305 304 303 302 301 300 299 299 298 297 296 295 293 290
304 305 305 305 306 307 308 308 309 309 308 308 309 309 309 309 309 309 308 309 309 308 308 308 307 306 305 304 302 302 301 300 300 300 299 297 295 292
305 306 306 307 307 308 308 309 310 310 309 309 309 310 310 309 309 309 309 309 310 310 310 310 309 309 308 307 305 303 302 302 302 301 300 299 298 295
306 307 307 308 308 309 309 310 310 310 310 310 310 311 310 309 309 310 310 311 311 312 312 312 312 311 310 310 308 306 304 304 304 303 302 301 299 297
307 308 309 309 309 309 310 310 311 311 311 311 311 311 310 310 310 310 311 312 312 312 313 313 313 313 313 312 311 309 307 307 307 307 305 303 301 300
309 310 310 310 310 311 311 312 312 312 311 311 311 311 310 310 310 310 311 311 312 312 313 313 314 314 314 314 313 312 311 310 310 310 308 305 304 302
310 311 311 311 311 312 312 313 313 312 312 312 312 311 310 310 310 310 310 311 312 311 312 313 313 314 314 314 314 314 314 314 313 312 312 311 307 304
312 312 312 312 312 313 313 313 313 313 313 312 312 311 310 310 310 311 311 312 312 312 312 313 313 313 314 315 315 315 315 316 315 315 315 313 309 305
313 313 313 313 313 313 313 313 314 314 314 313 313 312 312 312 312 312 313 313 313 312 312 312 311 311 313 315 315 314 315 316 315 314 315 314 310 308
314 313 313 313 313 314 314 314 315 316 315 315 315 314 313 313 313 314 314 314 314 313 312 312 311 310 312 314 315 314 315 315 315 315 315 316 315 314
314 314 313 314 314 314 314 315 316 317 317 317 317 316 314 314 314 315 315 315 315 314 313 312 311 311 312 314 315 315 315 315 314 316 315 315 314 317
315 315 314 314 314 314 315 315 316 317 318 318 318 317 316 315 316 317 317 316 315 314 314 313 312 313 313 314 315 316 316 315 316 317 310 303 297 314
316 315 315 314 314 314 315 315 315 316 317 318 318 318 317 316 318 318 319 317 316 315 315 314 313 313 314 313 315 315 314 313 314 312 300 279 265 335
Height
5696 5692 5688 5683 5679 5675 5670 5666 5662 5658 5655 5650 5643 5637 5631 5626 5620 5615 5610 5605 5600 5595 5590 5585 5580 5575 5571 5566 5562 5559 5556 5553 5550 5548 5546 5544 5543 5542
5687 5683 5678 5674 5670 5665 5660 5655 5650 5646 5642 5638 5631 5624 5618 5612 5606 5600 5595 5589 5584 5578 5572 5566 5561 5556 5551 5546 5542 5537 5534 5530 5528 5525 5523 5521 5519 5518
5677 5673 5669 5664 5660 5655 5649 5644 5639 5633 5628 5625 5617 5610 5604 5597 5591 5584 5578 5572 5566 5559 5553 5547 5541 5536 5530 5525 5520 5516 5512 5508 5505 5502 5499 5497 5494 5493
5668 5664 5659 5654 5649 5644 5638 5633 5627 5620 5615 5610 5604 5596 5589 5582 5576 5569 5561 5554 5547 5541 5534 5527 5521 5515 5509 5504 5498 5494 5489 5485 5482 5478 5475 5473 5470 5468
5658 5654 5649 5644 5639 5633 5627 5621 5614 5607 5601 5595 5589 5582 5575 5567 5560 5552 5544 5536 5528 5521 5514 5507 5501 5494 5488 5482 5477 5472 5467 5463 5460 5456 5452 5449 5446 5443
5648 5644 5639 5633 5627 5621 5615 5608 5601 5594 5587 5580 5574 5567 5559 5550 5542 5535 5528 5519 5510 5502 5495 5488 5481 5474 5468 5461 5456 5451 5446 5442 5438 5434 5430 5426 5423 5420
5638 5633 5627 5622 5615 5609 5602 5595 5588 5581 5573 5566 5559 5551 5543 5533 5525 5517 5509 5501 5493 5484 5477 5469 5462 5455 5448 5441 5436 5431 5426 5422 5418 5414 5410 5406 5402 5399
5628 5622 5616 5610 5603 5596 5589 5582 5574 5566 5558 5551 5543 5534 5525 5516 5507 5498 5489 5482 5476 5468 5460 5453 5444 5438 5430 5424 5418 5413 5408 5404 5399 5395 5391 5387 5383 5380
5617 5611 5605 5598 5591 5584 5577 5569 5560 5551 5543 5535 5526 5517 5508 5500 5490 5481 5472 5463 5456 5448 5441 5436 5428 5421 5414 5407 5402 5396 5391 5387 5383 5378 5374 5370 5366 5363
5605 5599 5593 5586 5578 5571 5564 5556 5547 5538 5528 5519 5510 5501 5492 5482 5473 5464 5455 5447 5440 5432 5423 5419 5412 5406 5399 5392 5385 5380 5375 5371 5367 5363 5359 5355 5351 5348
5593 5587 5580 5573 5566 5558 5551 5543 5534 5524 5513 5503 5494 5485 5475 5466 5456 5448 5440 5432 5426 5419 5409 5403 5397 5391 5385 5378 5371 5366 5361 5358 5354 5350 5346 5342 5339 5336
5582 5575 5568 5560 5552 5544 5536 5527 5519 5510 5500 5490 5480 5470 5460 5451 5441 5432 5425 5418 5411 5405 5398 5390 5384 5377 5373 5367 5360 5354 5349 5345 5342 5339 5335 5332 5329 5326
5570 5563 5555 5547 5538 5530 5521 5512 5503 5494 5485 5476 5466 5456 5447 5437 5428 5420 5412 5404 5398 5391 5384 5378 5371 5365 5359 5355 5350 5344 5339 5335 5332 5329 5326 5323 5320 5318
5558 5550 5542 5533 5525 5515 5506 5497 5488 5479 5469 5460 5451 5442 5433 5424 5416 5408 5400 5392 5386 5379 5373 5366 5360 5354 5349 5344 5340 5335 5331 5327 5324 5322 5319 5316 5314 5312
5544 5536 5528 5519 5510 5501 5492 5483 5473 5464 5454 5445 5437 5428 5419 5411 5404 5396 5389 5382 5375 5369 5363 5356 5351 5345 5340 5336 5332 5328 5324 5321 5318 5315 5313 5310 5309 5307
5531 5523 5514 5505 5496 5487 5478 5468 5459 5449 5440 5431 5423 5414 5406 5399 5392 5385 5378 5372 5366 5359 5353 5348 5343 5338 5333 5329 5325 5322 5318 5315 5313 5310 5308 5306 5304 5303
5518 5510 5501 5491 5482 5473 5463 5454 5444 5435 5426 5417 5409 5401 5394 5387 5380 5374 5368 5362 5357 5351 5345 5340 5335 5331 5327 5323 5320 5317 5313 5310 5308 5306 5304 5302 5301 5300
5504 5496 5487 5478 5469 5459 5450 5440 5431 5422 5413 5404 5396 5389 5382 5375 5369 5363 5358 5353 5348 5343 5338 5333 5329 5325 5322 5318 5316 5313 5310 5307 5305 5303 5301 5300 5299 5298
5490 5481 5472 5463 5454 5445 5436 5427 5418 5409 5400 5392 5384 5377 5371 5365 5360 5354 5349 5344 5339 5335 5331 5327 5323 5320 5317 5314 5312 5309 5307 5304 5302 5300 5299 5298 5297 5296
5476 5467 5458 5449 5440 5431 5422 5413 5405 5396 5388 5380 5373 5367 5362 5357 5351 5346 5341 5337 5332 5328 5324 5321 5318 5315 5313 5311 5308 5306 5303 5302 5300 5298 5297 5296 5295 5295
5462 5452 5443 5434 5426 5417 5409 5401 5393 5385 5378 5371 5364 5358 5353 5348 5344 5339 5334 5329 5325 5322 5318 5315 5313 5311 5309 5306 5304 5302 5300 5299 5298 5297 5296 5295 5295 5295
5447 5438 5430 5421 5412 5405 5397 5390 5383 5376 5369 5362 5356 5351 5346 5341 5337 5332 5327 5323 5319 5316 5313 5311 5309 5307 5305 5303 5301 5300 5298 5297 5296 5295 5295 5295 5295 5295
5434 5425 5416 5408 5400 5393 5386 5379 5373 5367 5361 5355 5349 5344 5339 5335 5330 5326 5322 5318 5314 5311 5309 5307 5305 5303 5301 5300 5299 5297 5296 5295 5294 5294 5294 5294 5294 5295